This is the latest recevied weather packets stored in our database for station/object N4JTC. If no packets are shown the sender has not sent any weather packets the latest 10 day(s).
| Time | Temp. | Humidity | Pressure | Rain* | Wind** | Luminosity | Snow |
|---|---|---|---|---|---|---|---|
| 1777856404 | 21.11° C | 60% | 1018.3 hPa | 0 mm | - | 0 W/m² | - |
| 1777856103 | 21.11° C | 61% | 1018.3 hPa | 0 mm | - | 0 W/m² | - |
| 1777855803 | 21.11° C | 60% | 1018.3 hPa | 0 mm | - | 0 W/m² | - |
| 1777855503 | 21.11° C | 60% | 1018.2 hPa | 0 mm | - | 0 W/m² | - |
| 1777855203 | 21.11° C | 60% | 1018.2 hPa | 0 mm | - | 0 W/m² | - |
| 1777854903 | 21.11° C | 61% | 1018.1 hPa | 0 mm | - | 0 W/m² | - |
| 1777854603 | 21.11° C | 62% | 1017.9 hPa | 0 mm | - | 0 W/m² | - |
| 1777854303 | 21.11° C | 61% | 1018 hPa | 0 mm | - | 0 W/m² | - |
| 1777853702 | 21.67° C | 62% | 1018 hPa | 0 mm | - | 6 W/m² | - |
| 1777853403 | 21.67° C | 60% | 1018 hPa | 0 mm | - | 10 W/m² | - |
| 1777853103 | 21.67° C | 59% | 1018.1 hPa | 0 mm | - | 13 W/m² | - |
| 1777852803 | 22.22° C | 58% | 1017.9 hPa | 0 mm | - | 17 W/m² | - |
| 1777852503 | 22.22° C | 57% | 1017.9 hPa | 0 mm | - | 22 W/m² | - |
| 1777852203 | 22.78° C | 56% | 1017.8 hPa | 0 mm | - | 27 W/m² | - |
| 1777851903 | 23.33° C | 55% | 1017.9 hPa | 0 mm | - | 31 W/m² | - |
| 1777851603 | 23.33° C | 55% | 1017.8 hPa | 0 mm | - | 36 W/m² | - |
| 1777851303 | 23.33° C | 55% | 1017.9 hPa | 0 mm | - | 50 W/m² | - |
| 1777851003 | 23.33° C | 56% | 1017.9 hPa | 0 mm | - | 67 W/m² | - |
| 1777850703 | 23.33° C | 55% | 1018 hPa | 0 mm | - | 80 W/m² | - |
| 1777850403 | 23.33° C | 54% | 1017.8 hPa | 0 mm | - | 92 W/m² | - |
| 1777850102 | 23.33° C | 53% | 1017.9 hPa | 0 mm | - | 108 W/m² | - |
| 1777849503 | 23.89° C | 53% | 1017.9 hPa | 0 mm | - | 142 W/m² | - |
| 1777849203 | 23.89° C | 53% | 1018.1 hPa | 0 mm | - | 166 W/m² | - |
| 1777848903 | 23.89° C | 52% | 1017.9 hPa | 0 mm | - | 184 W/m² | - |
| 1777848603 | 23.89° C | 52% | 1017.8 hPa | 0 mm | - | 203 W/m² | - |
* Rain latest hour (hover to see other rain measurements)
** Current wind speed in m/s (hover to see current wind gust speed)